Wind_Speed
16 16 15 16 16 15 14 14 14 14 14 14 14 14 15 14 14 14 14 14 13 13 12 13 14 14 14 14 16 16 16 15 14 14 13 14 15 14 14 15 15 15 16 15 14 15 15 16 16 16 16 15 15 15 15 15 15 16 16 17 17 18 18 19 18 18 18 18 17 17 17 17 17 16 16 15 14 13 14 13 12 11 12 12 12
17 16 15 16 16 15 14 14 14 14 14 14 14 14 14 14 13 13 13 13 12 12 11 12 14 14 13 14 15 14 14 14 14 15 14 15 15 14 15 16 16 16 16 15 14 14 15 15 15 16 16 16 15 15 15 15 16 16 17 17 18 18 19 19 18 18 17 17 17 16 15 15 15 15 15 15 14 14 13 12 11 11 12 12 12
18 16 15 16 15 15 15 14 14 14 14 13 13 13 13 13 13 13 12 12 11 11 11 11 13 13 13 12 13 13 13 13 14 15 14 14 15 15 15 15 16 16 16 16 15 15 15 15 15 15 15 15 16 16 16 16 16 17 17 17 17 17 18 18 18 17 17 16 16 15 14 14 15 15 15 15 15 15 13 13 12 12 12 11 11
17 16 16 16 15 14 15 15 14 14 13 13 13 12 12 13 12 12 11 11 10 10 11 11 12 12 12 11 11 12 13 13 15 15 14 14 15 15 15 14 15 16 16 16 15 15 15 15 14 14 15 14 15 16 16 16 16 17 16 16 16 16 16 16 16 16 16 16 15 14 13 13 14 14 14 15 15 14 13 13 13 13 13 12 11
16 16 16 16 15 14 14 15 15 14 13 13 12 11 11 12 11 11 11 10 10 10 11 11 11 11 11 11 11 12 12 13 15 15 15 15 15 15 15 14 15 16 15 16 15 16 16 15 14 14 15 14 15 16 17 17 16 16 15 15 16 16 15 16 16 15 15 15 14 12 12 12 12 13 13 13 13 13 13 12 13 13 13 12 11
17 17 17 16 15 14 14 14 14 14 14 13 11 10 10 11 11 11 10 10 10 9 10 11 11 10 10 10 11 12 12 13 14 15 15 15 16 15 15 15 15 16 15 16 16 15 16 15 15 15 15 15 16 17 17 17 15 14 14 16 16 16 15 16 16 15 15 15 14 12 11 11 11 11 11 11 12 12 12 11 12 12 12 12 11
16 16 16 16 15 14 13 13 13 13 13 13 11 11 11 11 11 11 11 11 10 9 9 10 11 10 10 11 12 11 11 13 13 14 15 15 15 15 15 15 15 16 16 16 16 16 16 15 15 15 15 16 16 17 17 16 15 14 15 16 15 15 15 16 16 15 15 14 14 11 10 11 10 10 10 10 11 11 11 11 10 10 10 10 10
14 14 14 16 15 14 13 12 12 12 13 12 11 11 11 11 11 12 12 12 10 9 9 10 12 12 12 13 12 11 11 13 13 13 14 15 15 15 15 14 15 16 15 16 15 15 15 14 14 14 15 15 15 16 15 15 15 15 16 16 16 16 15 15 15 14 14 13 13 11 9 9 9 9 9 9 10 11 11 10 9 8 9 9 8
14 13 14 15 15 13 12 12 11 11 12 11 10 11 11 11 11 11 12 12 11 10 10 12 13 12 13 12 12 12 12 13 13 12 14 14 14 15 15 14 15 15 15 15 15 14 14 14 14 13 13 13 13 14 14 14 15 16 16 16 17 16 15 15 15 14 12 12 12 10 7 7 8 8 8 8 8 9 9 9 8 7 8 8 7
17 14 14 14 14 13 12 11 11 11 11 11 10 10 10 10 10 10 11 11 11 10 11 13 13 12 12 11 11 12 12 14 13 12 13 13 14 14 14 15 15 14 14 14 14 13 13 14 14 13 12 12 12 12 13 14 14 15 15 15 15 14 15 15 15 14 12 11 11 9 7 6 6 6 5 6 6 7 8 8 7 6 6 6 6
18 15 14 15 14 12 12 11 11 11 11 10 10 10 10 10 10 10 10 11 11 10 10 12 12 12 12 11 11 12 12 13 13 13 12 12 14 13 13 15 14 14 14 13 13 13 13 13 13 12 12 12 12 13 13 13 13 14 14 14 15 14 14 15 15 14 12 10 9 7 7 6 5 4 4 4 4 5 6 6 5 5 5 4 4
17 16 15 15 14 12 12 11 11 10 10 10 10 10 9 9 9 10 10 11 11 10 9 11 12 12 12 11 11 12 13 13 12 13 13 12 14 13 13 14 14 14 13 13 13 12 13 13 12 11 11 12 12 13 13 13 13 13 14 14 15 15 14 15 14 13 11 9 8 5 6 5 4 3 2 3 3 4 4 5 4 4 4 4 4
16 16 16 15 14 12 11 10 10 10 9 10 10 9 9 9 8 9 10 11 11 10 10 10 11 12 12 11 10 11 13 13 12 13 12 12 13 12 12 13 14 13 13 12 12 12 13 12 11 11 11 12 12 13 13 13 12 11 12 12 13 14 14 15 12 10 8 7 5 2 4 5 3 1 1 2 3 3 3 4 4 3 3 3 3
16 16 16 15 13 11 10 9 9 10 9 9 9 9 9 9 8 9 10 11 11 11 10 9 10 12 12 12 11 10 12 13 12 12 12 11 12 12 12 13 13 13 13 12 12 12 12 12 11 11 11 12 12 12 12 12 11 10 11 11 12 14 15 14 10 9 8 6 3 2 4 4 2 2 2 3 3 3 4 4 4 3 3 2 3
15 16 15 14 13 12 10 9 9 9 10 9 9 9 8 8 8 8 9 10 11 11 11 11 10 11 11 12 12 11 12 13 12 12 11 11 11 11 12 12 12 12 13 12 12 12 12 11 11 10 10 10 11 11 11 11 11 11 11 12 13 14 15 14 9 9 8 4 1 2 4 3 2 3 3 4 5 5 5 5 4 4 3 3 4
15 14 14 13 12 12 11 9 9 9 9 9 9 9 8 8 8 8 9 10 10 10 11 11 10 10 10 11 12 11 12 12 11 11 11 11 11 11 11 11 12 11 12 12 12 13 12 11 10 10 9 10 10 10 11 10 11 12 12 12 13 14 15 15 9 7 7 2 2 2 4 4 4 4 5 6 6 7 6 6 5 5 4 4 5
14 13 12 12 11 10 10 9 9 8 8 8 9 9 9 9 8 9 9 10 10 11 11 12 11 11 10 11 13 12 12 12 11 11 10 11 11 11 11 11 11 11 11 11 12 12 11 10 10 9 9 10 10 10 11 11 12 13 13 13 14 16 15 14 9 6 5 2 1 3 4 5 6 5 6 7 8 8 7 7 6 6 6 6 6
14 13 11 11 11 9 9 8 8 8 8 7 8 8 8 8 9 9 9 10 11 12 12 12 12 11 11 11 13 13 12 12 12 12 11 10 11 11 11 11 11 10 11 11 11 12 11 10 10 10 10 10 10 11 11 13 15 15 16 15 16 16 13 11 9 7 2 2 1 3 4 5 5 6 5 7 8 8 8 7 6 6 6 6 6
13 12 11 10 10 9 9 8 7 7 7 7 7 8 8 8 9 10 10 10 11 11 12 12 12 13 12 12 12 13 13 12 12 12 11 10 11 12 11 11 10 10 11 11 11 11 11 10 10 10 10 11 11 12 13 14 15 16 17 16 16 14 11 10 8 8 3 4 1 1 3 5 5 5 5 7 8 8 8 7 6 6 6 6 6
12 10 10 9 9 9 8 8 8 7 7 7 7 8 8 8 9 10 11 12 11 11 11 12 13 14 14 13 13 13 13 12 12 11 11 11 11 11 11 10 9 9 10 10 10 10 10 10 10 11 12 12 13 14 14 14 14 13 15 14 15 13 12 11 5 5 3 6 1 2 3 4 5 5 5 6 7 7 7 6 6 6 6 6 6
12 9 9 10 9 8 8 7 8 7 7 7 7 7 8 8 8 10 12 12 12 12 11 12 13 14 15 14 13 13 13 13 13 12 12 11 10 10 10 9 8 9 10 10 9 9 10 11 11 13 13 14 15 15 14 14 13 12 12 11 12 12 12 9 3 2 4 4 1 3 4 5 5 5 5 6 6 6 6 6 6 6 6 7 7
11 9 8 8 7 7 7 7 7 8 8 8 8 8 9 10 10 11 12 13 13 13 13 12 13 14 15 15 14 13 13 13 14 13 13 12 10 10 9 9 9 10 10 9 9 9 10 11 12 12 13 14 16 17 15 14 12 11 11 10 10 11 10 6 4 2 3 2 2 3 4 5 4 5 5 5 5 6 6 7 7 6 7 7 7
12 10 8 6 6 7 7 6 6 7 7 7 8 9 9 10 12 11 11 13 13 14 14 14 14 14 15 15 14 13 13 14 14 14 13 12 11 10 10 10 11 11 11 10 9 10 10 11 11 11 10 10 12 14 13 11 11 11 10 10 10 10 9 5 4 4 5 3 1 3 4 4 4 5 5 5 5 6 6 7 8 7 7 7 7
12 12 9 5 5 7 9 8 5 6 7 6 7 7 8 10 11 11 11 12 13 14 14 15 15 15 15 16 15 14 13 14 14 14 13 12 11 11 11 11 11 11 11 10 9 10 11 11 11 11 10 10 10 10 10 7 8 9 8 9 8 7 6 5 4 4 6 1 2 3 4 4 5 5 5 6 6 7 7 8 8 8 8 7 8
11 12 11 7 5 5 8 8 5 6 7 5 5 5 6 8 10 10 10 12 13 15 15 15 17 16 16 17 16 15 14 14 14 14 13 12 12 12 12 12 11 10 10 10 10 11 12 11 10 10 10 10 10 8 7 5 5 6 7 6 5 5 3 3 4 6 4 1 2 3 4 4 5 6 6 6 6 7 7 8 9 9 8 8 8
10 12 13 10 9 7 6 6 4 6 7 5 5 5 6 6 8 10 11 13 13 15 16 16 17 17 17 17 17 16 15 15 14 14 13 13 13 12 12 12 11 9 9 10 10 11 11 11 10 8 8 9 10 7 4 2 1 2 5 3 4 5 3 1 3 5 2 1 2 3 4 5 5 6 6 6 7 7 8 9 9 9 9 9 8
9 11 13 12 10 7 4 6 5 6 7 6 6 6 6 6 9 12 12 14 14 15 17 18 19 18 18 17 17 16 16 15 15 14 13 13 12 11 10 11 10 7 7 9 9 8 8 9 8 6 6 6 7 5 4 4 5 5 2 4 6 4 3 3 3 4 2 1 1 3 3 4 5 5 6 7 7 8 8 9 9 9 9 9 8
9 10 12 13 11 7 5 6 6 7 7 6 7 7 8 9 11 14 14 15 15 14 16 18 20 20 18 17 17 17 16 15 15 13 13 12 11 10 9 8 6 5 6 7 6 6 6 5 5 5 4 2 4 3 4 4 6 8 2 3 5 4 4 3 4 3 4 2 0 2 3 4 5 5 6 7 7 8 8 8 8 9 8 8 8
11 11 13 13 13 11 9 7 6 7 7 7 8 7 10 11 11 13 14 14 14 15 16 18 20 20 19 17 17 17 16 15 14 13 12 12 11 11 9 7 6 5 5 4 3 4 5 4 3 4 1 2 7 5 6 4 4 6 3 2 4 6 6 4 3 2 5 3 2 1 3 4 4 5 5 7 7 8 8 8 8 8 7 7 7
12 12 14 14 12 12 12 8 6 7 8 9 8 7 9 11 11 13 16 15 15 15 16 18 20 20 20 18 17 16 15 14 13 11 11 11 12 11 8 8 8 7 6 5 5 5 6 5 4 5 2 4 7 5 7 7 4 4 4 4 3 5 5 5 5 5 5 4 4 2 3 4 4 5 6 7 8 7 7 7 7 7 6 6 5
13 12 14 13 9 10 11 9 7 9 8 8 9 9 9 10 11 14 17 17 16 16 17 20 21 20 20 19 16 15 14 14 13 11 11 12 12 10 10 10 8 7 6 7 7 5 6 4 4 4 3 5 7 4 6 7 5 5 6 7 4 2 4 3 5 6 3 3 3 3 4 4 4 5 7 7 7 7 6 5 5 5 5 4 4
13 13 13 11 11 10 9 9 8 9 8 7 10 11 10 9 11 13 16 17 17 17 19 21 21 20 20 19 17 15 14 14 13 11 11 12 11 10 10 9 8 8 8 6 5 6 6 3 5 5 3 5 7 4 5 7 6 6 7 6 5 3 3 3 6 8 4 3 1 6 5 4 5 6 7 7 7 6 5 4 4 3 3 2 2
12 13 12 13 14 12 11 10 9 10 10 9 10 11 12 12 12 13 15 18 18 18 20 22 21 21 20 19 17 15 14 14 14 12 10 10 10 10 9 8 8 7 7 6 5 7 7 3 5 6 3 4 7 4 5 7 5 7 7 5 5 5 5 6 7 7 3 2 4 7 7 5 5 7 7 6 6 5 4 3 2 2 1 1 2
12 12 12 13 13 13 12 12 10 11 12 11 10 10 13 14 14 15 15 17 18 18 21 22 21 20 20 18 15 14 14 14 14 13 10 9 10 10 8 7 7 6 7 8 7 8 6 4 5 5 2 4 6 4 5 6 4 6 7 5 5 6 8 8 6 6 3 3 5 5 5 5 5 6 7 6 5 4 3 2 1 1 0 1 3
12 12 13 14 12 13 12 12 12 12 12 13 12 12 13 13 15 17 17 17 18 20 21 21 20 20 20 18 15 15 16 15 14 12 11 11 10 10 8 7 8 6 6 7 8 8 3 3 4 3 3 5 5 3 4 5 5 5 6 6 5 4 6 7 6 7 5 5 5 5 5 6 6 6 7 6 5 4 3 1 0 1 2 3 4
13 13 14 13 12 13 12 13 13 12 12 13 13 14 14 15 17 17 17 17 18 20 21 21 20 19 19 19 18 18 18 16 14 13 13 12 9 10 8 7 8 7 6 5 6 7 3 3 3 5 5 5 5 6 4 4 7 5 5 7 6 5 6 6 6 8 7 7 6 7 8 6 6 6 6 4 4 3 3 2 2 2 3 5 5
13 14 14 13 13 13 12 13 13 13 13 13 13 13 13 15 16 16 16 17 18 20 20 19 19 18 17 19 18 17 18 17 17 15 14 11 9 9 6 6 8 7 7 7 6 6 4 4 3 5 7 5 6 9 6 5 7 5 6 7 6 7 6 4 6 8 8 7 6 6 8 6 5 5 4 2 2 1 3 3 3 4 4 6 5
14 14 14 13 13 12 13 14 13 13 13 13 14 14 14 14 15 16 16 16 18 19 18 17 17 17 16 17 17 16 18 19 18 16 13 10 9 9 7 8 8 7 9 9 7 6 5 4 4 6 5 4 5 5 4 5 6 5 7 6 4 6 5 3 7 8 7 6 5 7 6 4 5 3 2 4 4 4 5 5 5 5 5 6 4
14 14 14 14 13 13 14 15 14 13 13 13 13 14 16 15 14 14 14 15 17 18 18 17 17 17 16 17 17 17 18 18 17 14 12 10 10 9 8 9 9 8 9 8 6 7 6 3 4 5 3 3 4 4 3 4 2 3 7 6 3 5 5 4 6 8 6 4 5 8 8 4 5 7 6 6 6 6 8 8 7 6 6 7 5
15 15 15 14 14 14 15 16 14 13 13 14 14 14 15 14 14 13 13 15 16 17 17 17 17 16 15 17 17 17 18 18 16 14 12 10 10 8 7 7 8 7 7 7 6 4 6 6 4 5 5 3 2 3 4 2 2 2 5 5 3 2 4 4 4 6 5 4 4 6 8 8 8 9 8 7 5 6 9 11 10 8 9 9 7
16 16 16 15 15 15 15 16 15 14 14 14 14 13 13 13 14 13 13 15 15 16 14 15 16 14 13 16 16 16 16 16 15 14 12 10 9 7 7 8 7 7 8 8 8 6 7 6 5 3 4 2 2 3 4 4 3 3 3 4 3 1 3 3 2 4 4 4 5 4 4 8 10 10 9 7 5 5 8 12 12 10 10 10 10
17 17 16 16 15 15 15 16 15 14 13 14 14 13 13 13 13 12 12 14 15 15 13 14 16 13 13 16 15 16 15 14 13 13 12 10 8 7 8 8 6 8 10 7 8 8 7 6 4 0 2 3 3 2 2 4 4 3 3 5 4 4 5 2 2 6 5 5 7 4 4 6 8 10 9 7 6 7 9 12 12 12 12 11 11
17 17 17 16 16 15 16 16 16 15 14 14 14 13 13 13 12 11 12 13 13 13 12 13 14 12 13 15 15 15 14 13 12 11 10 8 7 7 7 7 6 8 9 7 8 8 7 6 3 1 2 4 5 4 2 2 0 2 4 5 5 7 6 2 4 5 3 3 5 3 4 5 7 6 7 6 10 10 10 12 13 14 15 14 11
17 17 18 17 17 16 16 16 16 16 15 15 14 13 14 13 11 11 12 12 12 13 12 12 14 12 12 14 13 14 14 12 11 9 8 7 7 7 6 5 5 7 7 7 7 7 6 4 2 3 3 2 4 5 3 2 2 3 2 3 5 4 5 1 3 3 1 1 3 4 3 4 8 4 6 4 9 10 11 9 10 12 14 14 13
18 18 18 18 17 17 17 16 16 16 16 17 15 14 15 15 13 13 14 13 12 13 13 13 14 13 12 12 12 13 13 10 10 9 7 7 7 7 6 5 6 7 6 6 5 4 4 3 2 5 4 2 3 4 4 3 2 3 3 3 3 3 3 1 5 3 4 1 4 5 3 4 7 2 6 7 6 9 12 8 7 11 14 14 14
18 18 18 18 18 18 18 17 17 16 16 17 17 16 17 18 16 15 15 15 13 13 13 13 14 13 12 11 10 12 13 10 10 9 7 7 8 7 7 6 6 7 7 7 6 5 5 4 3 4 4 2 2 2 3 4 3 1 3 2 3 5 4 2 5 5 4 2 4 5 4 6 7 3 5 10 8 8 10 6 7 10 13 15 15
18 18 18 18 18 18 18 18 18 17 16 18 19 18 18 18 17 15 14 15 14 13 13 12 13 13 12 11 10 11 12 9 9 9 7 8 8 7 7 6 6 6 7 7 6 5 7 7 6 6 6 5 4 1 2 4 3 1 3 0 2 3 4 4 4 5 6 3 3 4 6 8 10 6 6 11 10 8 8 7 7 7 9 13 16
18 18 18 18 19 19 18 18 19 18 17 18 19 18 18 18 17 15 13 13 12 13 14 12 12 14 13 11 10 11 11 10 9 10 9 8 8 7 6 6 6 6 7 7 5 4 7 7 7 9 8 5 4 3 2 2 2 3 2 3 1 2 3 5 5 5 6 6 5 5 6 7 9 8 10 12 10 7 8 8 9 9 8 11 16
18 18 18 18 19 19 18 19 19 18 17 18 18 18 18 18 17 14 13 13 12 12 14 12 12 14 13 12 11 10 11 11 10 9 8 8 8 7 6 6 6 6 6 6 4 5 7 8 8 8 7 5 4 5 4 1 1 3 1 1 1 2 1 4 6 5 6 8 6 6 7 9 10 9 9 10 9 8 9 12 12 11 10 12 14
19 18 18 18 20 19 18 19 19 19 17 17 17 18 18 18 18 15 14 14 13 12 14 13 13 15 13 13 14 12 10 10 10 9 8 9 8 7 7 6 6 6 6 7 6 7 8 9 7 6 6 6 6 6 5 3 3 3 2 3 4 4 2 4 6 6 7 7 6 6 8 10 12 10 8 7 9 9 10 13 13 11 10 10 11
19 19 18 18 19 18 18 19 19 19 18 17 17 18 18 19 18 16 14 15 14 13 14 15 15 16 15 13 14 15 12 9 10 10 9 9 9 8 8 7 6 7 7 9 8 6 6 5 4 6 6 6 7 6 6 5 4 5 4 5 6 6 5 5 7 7 7 7 8 7 6 9 11 10 9 7 9 12 11 11 10 9 8 7 7
Wind_Direction
136 135 137 135 125 125 125 120 116 113 114 115 115 113 111 110 108 104 102 100 99 99 99 98 97 100 103 108 110 116 117 111 107 107 108 105 107 113 114 113 112 110 106 106 106 106 106 106 106 107 107 106 106 105 103 101 100 99 98 97 97 95 94 93 91 89 87 86 84 85 86 87 88 89 91 92 94 96 98 96 96 100 103 103 105
140 137 141 140 131 131 129 122 118 117 116 112 112 111 111 110 106 101 98 98 98 97 97 99 101 103 105 111 116 118 114 107 108 110 111 111 112 116 115 114 114 110 108 109 107 106 106 106 106 107 107 106 105 103 101 101 102 100 99 100 99 98 97 93 91 88 85 84 83 83 85 87 87 88 88 88 90 91 92 94 97 102 103 104 108
140 139 144 143 138 137 130 124 122 118 115 112 110 111 112 110 106 101 99 101 101 100 100 100 104 105 105 109 117 120 114 111 111 110 113 115 115 116 113 114 114 110 109 109 108 106 105 104 104 103 102 103 102 101 100 102 103 102 102 101 101 99 97 94 92 89 87 83 80 81 83 85 88 87 86 87 88 88 88 89 92 97 99 101 105
139 140 143 142 144 141 130 128 125 121 118 116 114 113 113 110 107 103 102 105 105 105 104 106 110 112 112 111 116 119 116 114 111 112 116 114 113 113 113 113 111 110 110 109 108 106 104 102 102 101 99 100 101 102 103 104 105 105 104 102 101 99 97 95 92 90 89 84 78 77 80 84 87 86 86 88 89 89 89 90 91 92 92 93 96
141 141 142 145 149 142 132 130 129 128 124 120 119 119 116 113 108 104 104 105 104 106 109 112 114 113 115 117 119 120 118 115 114 118 119 117 116 114 116 115 111 111 110 109 108 106 105 103 104 103 101 101 103 105 105 106 107 106 106 103 100 97 96 96 94 92 89 86 82 77 78 81 84 87 89 90 91 91 89 89 89 88 88 88 89
145 144 145 147 149 142 134 132 133 134 130 126 126 124 118 111 106 106 106 103 101 106 114 116 115 113 114 121 122 117 114 117 119 121 120 120 118 117 117 114 111 111 110 108 108 106 104 104 104 102 102 103 104 106 108 108 108 106 104 102 98 95 94 92 90 88 85 87 88 79 75 78 82 88 92 94 94 91 88 86 85 88 89 87 86
144 144 146 146 147 144 137 136 137 138 134 133 133 128 119 116 112 111 109 103 102 106 118 123 121 118 120 124 122 114 116 123 123 122 123 121 118 118 116 116 118 115 112 109 108 107 103 103 103 102 102 103 104 106 107 107 106 104 103 101 98 95 93 90 86 83 83 85 88 83 74 75 80 86 92 95 96 94 89 85 83 86 89 88 86
140 142 146 147 147 146 142 141 142 142 139 138 138 134 125 122 118 113 111 109 109 111 120 126 123 121 123 125 124 122 127 127 122 125 125 122 122 120 120 122 120 114 112 110 108 107 106 105 103 104 105 106 107 107 107 106 105 104 102 100 98 96 94 93 88 83 84 83 85 86 80 79 80 83 88 92 95 95 92 89 86 86 88 89 84
142 146 150 148 146 145 145 147 146 146 143 143 144 138 129 122 117 114 115 118 118 118 123 124 123 124 123 124 128 131 134 125 122 129 127 125 124 123 126 122 114 112 112 111 109 109 110 109 106 104 104 108 110 111 110 109 107 104 104 103 100 98 96 95 89 84 85 87 87 87 85 86 85 82 86 91 91 91 91 90 89 86 84 81 72
147 151 155 149 146 147 149 151 149 149 149 150 149 140 130 123 118 120 124 125 124 122 125 126 125 125 123 127 134 138 136 126 125 128 124 125 124 125 127 118 113 114 112 111 111 112 113 111 109 105 102 104 107 111 112 111 110 108 108 105 100 98 95 92 89 85 83 88 91 92 89 80 83 88 93 98 98 95 92 91 87 80 75 70 65
146 150 156 152 147 148 150 153 150 150 154 156 153 142 132 128 127 133 134 131 129 125 129 130 129 130 127 132 137 139 135 128 129 126 126 131 126 126 123 115 116 115 114 114 113 114 115 113 110 106 102 101 104 107 110 114 115 115 113 106 102 97 92 87 86 89 86 86 91 100 100 82 77 91 111 116 111 104 98 95 89 78 71 66 66
145 149 154 151 146 149 155 155 153 152 154 155 151 144 134 131 136 143 140 133 133 134 137 135 135 138 134 133 132 134 133 131 134 131 135 138 127 124 119 113 115 115 115 114 115 117 115 114 112 107 103 103 105 108 111 115 120 122 117 112 106 98 91 85 83 88 91 94 98 107 108 92 73 75 118 135 122 109 99 95 90 83 80 77 77
144 152 154 150 147 151 159 156 155 156 153 150 147 145 139 136 141 144 140 134 138 144 146 142 141 144 139 133 129 133 134 135 139 134 137 136 126 125 120 117 118 116 114 113 115 117 117 117 114 108 103 104 106 108 110 113 120 123 120 117 110 102 93 82 79 86 87 88 100 111 91 80 66 75 160 164 147 124 111 104 101 100 98 95 82
143 151 153 150 149 149 154 151 153 158 154 151 147 145 144 142 144 145 143 142 146 152 153 148 146 145 143 138 135 139 136 137 140 133 135 133 127 127 124 123 121 118 115 114 114 117 120 117 111 107 102 105 106 105 106 109 117 122 122 117 107 101 91 82 78 81 74 60 77 92 71 66 70 114 170 171 164 140 131 127 123 120 111 98 74
142 146 150 149 149 148 151 152 154 159 155 152 146 144 149 150 152 150 148 150 153 161 162 157 152 146 145 143 140 142 137 138 138 133 137 136 133 131 127 125 121 119 119 117 118 118 120 118 113 110 106 105 104 102 102 106 113 120 124 120 110 101 98 93 76 78 87 71 29 70 70 80 96 111 140 148 146 137 135 135 134 130 116 99 87
136 141 146 149 152 151 154 157 157 161 160 156 149 152 161 161 161 156 153 152 157 169 167 160 157 147 147 148 144 143 139 140 139 134 138 137 138 135 129 126 122 120 120 119 120 121 121 119 116 113 109 104 104 103 103 105 110 118 123 124 115 107 105 98 82 90 104 101 301 35 81 98 104 111 122 130 131 126 127 130 130 125 118 111 103
137 139 144 149 152 151 156 158 160 165 169 166 162 169 170 167 167 163 157 155 163 171 168 161 159 152 154 156 149 148 144 144 145 139 137 141 143 137 131 127 126 124 120 121 121 122 121 119 117 112 106 103 104 102 100 103 104 112 122 124 114 109 107 103 119 130 82 42 5 60 99 103 103 111 118 125 123 120 122 122 123 122 120 113 108
137 141 141 146 149 153 159 159 163 167 173 176 176 181 177 172 171 169 162 164 172 170 166 162 159 157 160 165 155 152 149 148 149 142 140 146 145 138 134 129 129 129 125 126 122 121 119 116 116 109 105 105 103 99 96 98 102 105 113 117 111 108 108 104 124 128 95 262 357 56 105 105 108 116 124 125 118 118 118 117 117 115 112 108 107
141 144 141 146 153 154 160 163 168 169 175 182 187 187 184 180 171 171 169 172 177 171 169 162 161 162 161 168 160 152 151 150 148 143 143 149 149 141 137 134 133 133 131 129 124 121 117 115 111 108 108 104 98 96 94 95 100 102 104 107 104 100 96 90 90 94 116 260 330 82 125 114 123 125 128 120 112 114 114 116 115 111 109 105 105
141 144 145 150 154 153 157 161 167 174 180 183 190 188 185 187 176 175 176 178 178 176 176 165 163 165 162 164 158 152 152 151 149 146 148 153 154 144 137 136 135 135 134 131 127 123 119 114 107 107 105 100 97 96 96 93 93 96 100 102 101 100 92 94 98 104 181 250 248 141 141 130 133 127 124 110 106 109 111 114 112 111 111 107 106
143 142 144 143 142 148 154 160 169 178 183 185 192 188 181 188 186 184 184 181 180 180 177 167 166 166 163 162 157 155 150 149 152 152 154 157 154 144 137 137 137 136 134 132 130 128 123 115 107 106 101 97 94 93 92 87 86 88 94 96 101 104 94 103 143 147 218 238 144 147 142 139 134 124 117 105 108 110 112 114 111 112 110 107 106
149 141 139 136 139 148 150 162 169 169 176 178 182 180 178 188 190 191 188 180 180 182 175 169 169 166 162 161 161 158 152 153 157 157 155 154 152 143 139 140 138 132 129 130 132 131 124 117 110 104 98 96 94 94 90 81 82 86 86 86 89 91 89 116 147 129 276 322 107 158 138 139 134 124 115 107 112 113 116 114 112 112 109 107 105
152 147 145 143 150 149 146 163 168 165 170 163 169 175 175 185 186 187 185 179 179 178 174 169 167 165 161 160 162 160 157 160 160 158 153 149 148 140 140 139 133 128 129 131 131 129 124 118 109 99 96 96 89 88 88 78 72 80 86 79 79 82 86 105 109 148 250 307 128 160 132 142 131 119 113 112 117 116 120 116 115 113 110 108 105
158 150 149 156 156 146 152 171 175 164 164 157 163 166 172 182 180 182 183 179 178 173 170 166 163 165 164 163 163 162 161 164 162 155 149 146 143 138 138 135 131 129 130 131 129 126 121 115 105 97 94 92 85 74 75 68 50 65 82 69 67 77 80 89 102 196 245 312 164 158 133 143 125 119 114 115 124 124 126 123 120 117 114 110 105
165 148 147 157 162 158 165 179 183 161 164 170 160 153 173 185 176 179 179 174 178 175 168 163 164 165 165 165 163 163 162 163 161 151 146 143 138 136 135 132 128 127 128 129 129 126 119 111 104 101 94 83 76 62 62 55 19 46 78 64 69 99 94 96 145 221 272 358 173 152 138 140 121 119 117 126 134 131 131 127 124 120 115 109 102
156 150 151 157 169 184 176 172 177 160 168 180 157 149 169 182 170 171 173 169 175 175 169 164 165 162 162 165 162 162 161 160 158 148 143 137 134 136 134 131 127 127 130 121 121 130 121 102 93 91 91 82 68 54 69 83 324 70 94 116 113 128 180 121 169 231 304 349 185 145 145 134 120 123 126 138 139 135 132 127 126 120 114 105 96
154 154 153 158 170 188 175 169 176 156 172 177 149 144 151 163 164 161 161 166 169 169 169 165 163 161 162 165 160 160 159 156 155 148 144 138 135 136 136 134 126 130 133 117 120 132 115 87 66 57 65 88 84 69 102 145 179 164 141 145 127 134 152 125 215 256 27 62 172 139 149 125 120 132 136 144 140 135 131 128 126 120 115 104 93
168 155 150 158 160 169 168 175 179 153 163 154 130 135 138 144 158 159 156 163 166 163 164 160 160 162 162 163 158 156 157 155 155 151 148 142 134 131 134 135 125 130 123 111 118 118 102 71 43 46 27 82 137 143 129 132 156 156 162 130 142 157 143 157 219 277 2 24 78 127 136 123 125 140 145 146 140 136 130 127 125 120 114 102 92
165 155 155 161 156 165 173 176 171 151 153 139 129 139 137 138 150 158 158 163 165 163 163 158 159 161 159 160 156 154 155 153 153 152 145 139 134 127 132 147 162 167 135 116 130 124 122 121 100 100 57 144 144 175 169 150 138 145 167 139 128 131 148 193 164 241 294 11 28 98 118 119 129 144 151 148 141 138 132 127 123 119 112 101 91
159 153 159 170 165 168 174 174 162 145 145 139 139 144 136 138 146 152 155 160 164 164 166 161 158 158 157 156 155 154 152 149 152 152 142 138 134 132 150 170 173 169 150 158 173 148 125 132 143 132 180 151 126 159 155 148 164 155 169 158 123 110 151 194 140 184 256 16 24 36 108 119 129 148 155 153 146 136 129 124 122 117 108 101 89
159 153 156 171 168 159 164 163 153 139 134 137 145 150 146 142 140 143 147 153 159 161 164 161 157 156 155 152 151 153 152 152 154 151 148 143 136 147 172 172 168 163 152 166 168 142 120 143 179 144 176 150 123 170 150 140 173 155 148 153 151 117 134 163 127 143 211 334 13 62 93 117 133 157 159 156 147 135 130 123 119 117 107 99 85
158 154 151 158 152 147 151 153 146 135 133 135 137 142 149 144 132 133 141 149 156 158 159 158 155 153 151 147 146 148 153 157 153 147 150 147 143 162 174 164 169 163 152 167 168 150 141 180 201 152 160 146 125 171 150 133 161 152 150 153 158 168 138 137 130 137 184 283 70 105 110 130 149 164 162 155 147 138 131 125 116 116 113 90 61
155 150 150 156 157 153 149 150 145 136 138 137 130 131 138 142 136 133 139 146 151 153 154 155 154 153 151 148 145 147 155 158 150 143 147 151 154 168 169 158 167 156 153 179 172 150 137 152 171 134 124 134 131 168 151 133 147 145 148 148 143 150 139 139 147 151 181 238 147 129 120 137 164 163 159 152 147 148 137 131 123 114 113 66 0
152 149 153 155 156 154 150 152 149 141 142 143 139 132 132 139 142 140 137 139 146 151 153 155 155 156 156 154 151 155 165 159 144 140 154 171 170 171 168 161 166 161 167 173 149 128 122 139 139 124 151 137 142 176 147 142 154 137 138 144 142 138 137 140 154 164 177 198 168 142 127 147 175 166 157 151 148 157 153 137 117 102 17 355 341
150 152 155 150 149 151 151 150 147 144 146 147 146 143 138 138 141 140 134 133 142 146 149 154 158 160 159 159 160 164 170 160 143 147 173 182 174 166 165 169 168 155 160 160 136 123 131 168 126 134 177 130 144 174 133 157 171 143 135 150 152 144 150 147 148 158 185 219 186 166 174 164 170 170 153 150 155 158 172 192 296 338 329 329 336
153 154 152 149 152 153 152 150 148 148 148 146 145 144 141 140 140 138 132 132 140 143 146 152 156 160 162 167 170 169 170 161 148 160 178 179 172 164 162 175 162 138 154 168 139 131 158 201 120 124 141 120 163 175 149 164 164 153 146 151 143 134 150 144 143 161 188 222 203 193 207 193 184 184 162 152 154 163 197 210 238 287 310 316 329
155 154 150 150 152 152 151 151 150 150 149 148 143 140 140 141 143 142 135 132 140 144 144 147 152 157 162 166 170 170 168 161 154 163 176 177 172 162 158 173 159 141 164 163 131 122 145 182 149 126 127 113 161 168 161 164 158 153 157 164 153 149 159 136 142 164 176 203 222 222 218 211 219 207 184 196 158 187 266 245 244 259 273 292 317
155 155 152 152 152 152 155 154 152 151 154 152 142 139 140 139 142 144 138 136 141 142 142 146 148 154 164 166 168 170 167 164 161 164 173 172 166 163 162 167 158 152 160 150 141 146 146 157 150 138 121 83 122 147 173 181 172 164 169 181 172 168 183 170 164 173 181 195 217 233 239 242 248 253 303 293 272 286 302 291 283 279 280 288 306
157 157 153 153 152 153 159 158 153 153 157 152 142 142 138 134 141 143 139 140 141 143 148 154 152 157 170 169 169 169 166 166 164 163 163 154 156 163 166 168 158 156 159 151 151 157 155 150 143 140 109 73 97 108 141 154 158 163 156 159 171 173 181 197 178 169 190 207 199 220 238 255 269 287 309 301 276 281 302 314 316 302 302 307 316
159 158 154 155 154 156 164 161 155 161 162 151 144 143 136 137 146 145 141 140 142 146 150 152 154 163 171 167 168 169 167 167 165 166 160 150 160 165 162 165 156 160 169 161 153 162 181 175 156 145 120 113 123 138 172 202 298 192 147 162 208 175 167 211 193 165 197 221 193 212 226 230 260 280 283 297 298 277 282 300 313 309 308 309 319
161 160 157 157 157 162 167 162 160 168 165 151 145 144 142 146 149 148 144 142 145 149 147 149 155 166 170 165 168 169 167 169 170 171 165 156 165 164 162 163 154 168 177 166 156 169 195 170 144 147 126 152 214 186 216 249 244 187 151 178 213 192 186 219 222 191 216 221 204 221 226 232 257 261 263 294 297 268 277 292 298 295 302 306 315
164 163 162 162 162 165 167 165 166 169 164 153 149 149 151 151 150 150 147 146 149 147 147 155 157 165 170 165 168 169 169 172 172 172 171 166 161 158 163 160 160 177 180 174 166 175 190 155 120 82 140 165 180 156 232 213 180 205 217 199 200 210 211 236 254 217 223 222 219 251 238 240 276 252 248 286 269 266 286 285 287 289 298 305 316
168 166 168 165 164 169 169 169 170 166 163 160 158 157 155 149 147 153 148 147 151 147 152 158 155 164 171 164 167 171 169 171 171 171 174 170 160 159 159 162 173 179 178 179 179 184 182 153 135 266 181 176 173 153 200 206 222 276 233 222 218 201 190 218 267 231 221 220 218 272 247 260 309 236 218 277 251 256 282 274 278 286 291 297 306
171 169 171 168 168 180 176 171 171 166 167 168 163 161 156 148 153 161 150 149 156 151 152 155 153 160 166 163 167 169 166 169 171 169 174 174 168 163 153 164 175 165 171 175 172 176 165 152 186 200 175 191 182 163 163 164 342 308 262 251 244 197 170 168 323 243 192 18 222 247 248 295 324 218 185 275 243 247 274 269 272 280 286 294 300
175 173 175 172 172 184 181 173 171 170 174 172 163 166 165 157 159 160 148 152 159 152 153 156 155 158 164 168 169 167 165 169 172 171 179 180 175 171 161 169 173 158 156 149 146 163 171 178 214 195 176 133 147 156 167 145 61 309 269 259 289 19 59 19 348 264 209 343 257 254 281 309 324 245 217 270 266 265 274 281 319 306 290 288 294
179 177 177 175 175 183 183 178 172 170 178 174 166 175 176 168 163 158 154 159 158 153 156 158 158 160 168 177 175 168 168 172 176 175 186 189 180 177 172 170 170 163 157 153 157 172 183 187 190 199 191 161 151 130 184 179 92 303 245 278 327 9 18 314 328 297 248 281 277 277 290 285 306 318 255 277 290 290 278 284 326 313 293 282 289
181 180 179 178 178 182 184 182 176 171 180 179 175 181 180 176 173 167 164 165 161 158 158 161 164 160 170 184 180 176 177 171 173 177 186 194 184 176 178 175 163 163 170 169 167 170 178 177 177 204 202 186 201 156 156 182 135 228 232 178 353 336 346 338 328 306 286 298 310 288 283 284 288 286 284 284 283 291 287 265 258 279 297 295 298
183 181 180 179 180 187 186 183 179 175 181 185 182 184 181 180 178 171 170 167 164 164 158 164 169 160 172 187 178 184 184 168 177 191 188 190 189 180 183 182 168 171 176 165 164 185 189 181 188 218 217 188 202 215 197 175 43 356 239 161 76 316 316 324 313 302 300 308 324 319 303 294 288 288 298 294 287 302 307 280 255 259 280 292 299
185 182 180 178 181 191 188 182 182 178 184 189 186 186 184 182 177 171 176 171 165 170 161 163 171 165 175 183 176 193 200 182 185 201 199 192 192 188 190 191 184 185 172 156 176 214 213 211 216 227 221 195 204 223 233 262 317 340 342 173 317 315 275 300 302 307 313 305 307 321 313 299 296 302 302 300 303 304 303 293 275 267 281 293 291
184 182 179 176 178 190 189 186 185 181 187 191 186 188 189 187 178 172 183 173 164 177 169 166 179 176 177 181 179 191 206 201 193 199 205 199 197 196 195 197 196 188 172 171 193 216 225 226 227 222 209 206 219 227 226 236 248 256 286 307 314 316 288 282 293 295 302 304 299 294 301 305 304 304 299 306 313 299 291 295 289 285 297 299 288
182 180 178 177 179 188 190 189 188 184 190 194 188 189 192 194 183 174 185 176 168 187 185 178 186 183 180 185 188 190 195 204 205 210 213 202 200 202 198 198 200 198 193 193 196 209 226 224 223 232 232 232 236 237 230 228 255 271 276 293 300 301 291 284 291 296 297 303 307 295 296 305 299 302 314 317 312 303 298 299 300 300 297 284 279
Height
1531 1531 1532 1532 1532 1532 1534 1534 1535 1535 1535 1536 1535 1536 1536 1537 1537 1538 1539 1539 1540 1541 1542 1543 1544 1545 1546 1546 1547 1548 1549 1549 1550 1551 1551 1552 1553 1556 1557 1557 1557 1556 1556 1556 1556 1556 1556 1556 1557 1557 1557 1558 1558 1558 1559 1559 1560 1560 1560 1561 1561 1561 1562 1562 1563 1563 1564 1564 1564 1564 1565 1566 1566 1566 1566 1567 1567 1568 1568 1569 1569 1569 1570 1570 1571
1530 1531 1532 1532 1533 1533 1535 1535 1536 1536 1536 1537 1536 1537 1537 1538 1538 1539 1539 1540 1541 1541 1543 1544 1545 1546 1547 1548 1548 1549 1551 1552 1552 1552 1553 1554 1555 1557 1557 1558 1558 1558 1558 1558 1558 1557 1558 1558 1558 1558 1559 1559 1559 1560 1560 1560 1560 1561 1561 1561 1562 1562 1562 1563 1563 1564 1564 1565 1565 1565 1566 1567 1567 1567 1567 1568 1568 1569 1569 1570 1570 1570 1570 1571 1571
1530 1532 1532 1533 1534 1534 1536 1536 1537 1537 1537 1538 1538 1539 1538 1539 1539 1540 1540 1541 1542 1542 1544 1544 1546 1547 1548 1549 1550 1551 1552 1553 1553 1553 1555 1556 1557 1558 1559 1560 1559 1559 1559 1559 1559 1559 1559 1559 1559 1559 1560 1560 1560 1561 1561 1561 1561 1562 1562 1562 1562 1563 1563 1563 1564 1565 1565 1565 1566 1566 1567 1568 1568 1568 1568 1569 1569 1569 1570 1570 1571 1571 1571 1571 1572
1531 1532 1533 1534 1535 1535 1536 1537 1537 1538 1538 1538 1539 1539 1539 1540 1540 1541 1541 1542 1543 1543 1544 1545 1546 1547 1549 1550 1551 1552 1554 1555 1554 1555 1556 1558 1559 1560 1560 1561 1560 1560 1560 1560 1560 1560 1560 1560 1561 1561 1561 1561 1561 1562 1562 1562 1563 1563 1563 1563 1563 1564 1564 1564 1565 1566 1566 1566 1567 1568 1568 1569 1569 1569 1569 1569 1570 1570 1571 1571 1571 1571 1572 1572 1572
1531 1532 1534 1534 1536 1536 1537 1537 1538 1538 1539 1539 1540 1540 1541 1541 1541 1542 1542 1543 1544 1544 1545 1546 1547 1548 1550 1551 1552 1553 1555 1556 1556 1557 1558 1560 1560 1561 1561 1562 1561 1561 1561 1561 1562 1561 1561 1562 1562 1562 1562 1562 1563 1563 1563 1564 1564 1564 1564 1564 1565 1565 1566 1566 1566 1566 1567 1567 1568 1569 1569 1569 1569 1570 1570 1570 1571 1571 1571 1572 1572 1572 1572 1572 1572
1532 1533 1535 1535 1536 1537 1537 1538 1538 1539 1540 1540 1541 1541 1542 1542 1543 1543 1543 1544 1545 1546 1546 1547 1548 1549 1550 1552 1554 1554 1556 1557 1558 1558 1559 1561 1561 1562 1562 1562 1562 1562 1563 1563 1563 1563 1563 1563 1563 1563 1563 1564 1564 1564 1565 1565 1565 1565 1565 1565 1566 1567 1567 1567 1567 1567 1568 1568 1569 1569 1570 1570 1570 1570 1571 1571 1571 1571 1572 1572 1572 1572 1573 1573 1573
1533 1534 1535 1536 1537 1537 1538 1538 1539 1540 1540 1541 1542 1542 1543 1543 1544 1544 1545 1545 1546 1547 1548 1548 1549 1550 1551 1553 1554 1555 1557 1558 1559 1560 1561 1562 1562 1563 1562 1563 1564 1564 1564 1564 1564 1564 1564 1564 1564 1565 1565 1565 1565 1565 1566 1566 1566 1566 1566 1567 1567 1567 1568 1568 1568 1568 1569 1570 1570 1570 1571 1571 1571 1571 1571 1571 1571 1572 1572 1572 1573 1573 1573 1573 1573
1533 1534 1535 1536 1537 1537 1538 1539 1540 1540 1541 1542 1543 1543 1544 1544 1545 1546 1546 1547 1547 1548 1549 1550 1550 1551 1553 1554 1555 1556 1557 1558 1560 1561 1562 1562 1563 1563 1563 1564 1565 1564 1564 1565 1565 1565 1565 1565 1565 1565 1565 1566 1566 1566 1567 1567 1567 1567 1567 1568 1568 1568 1568 1569 1569 1569 1570 1571 1571 1571 1572 1571 1572 1572 1572 1572 1572 1572 1572 1573 1573 1573 1573 1573 1574
1533 1534 1535 1536 1537 1538 1539 1540 1540 1541 1542 1543 1544 1544 1545 1546 1546 1547 1547 1548 1548 1549 1551 1551 1552 1553 1555 1556 1557 1557 1558 1559 1560 1562 1563 1563 1564 1564 1564 1564 1565 1565 1565 1565 1565 1566 1566 1566 1566 1566 1566 1567 1567 1567 1568 1568 1568 1568 1568 1569 1569 1569 1570 1570 1570 1571 1571 1572 1572 1572 1572 1572 1572 1572 1573 1573 1573 1573 1573 1573 1573 1574 1574 1574 1574
1534 1534 1535 1536 1537 1538 1539 1541 1541 1542 1543 1544 1545 1545 1546 1547 1547 1548 1548 1549 1549 1550 1552 1553 1554 1555 1556 1557 1557 1557 1558 1559 1560 1562 1565 1565 1565 1565 1565 1565 1565 1566 1565 1566 1566 1566 1566 1567 1567 1567 1567 1567 1568 1568 1568 1568 1569 1569 1569 1570 1570 1570 1571 1571 1571 1572 1573 1573 1573 1573 1573 1573 1573 1573 1573 1573 1573 1573 1573 1574 1574 1574 1574 1574 1574
1534 1535 1535 1536 1538 1539 1540 1541 1542 1543 1544 1545 1545 1546 1547 1547 1548 1549 1549 1550 1551 1552 1553 1554 1555 1556 1557 1557 1558 1558 1559 1560 1561 1564 1566 1566 1566 1566 1566 1566 1566 1566 1566 1566 1567 1567 1567 1567 1567 1568 1568 1568 1569 1569 1569 1569 1569 1570 1570 1571 1571 1572 1572 1572 1572 1572 1573 1574 1574 1574 1574 1573 1573 1573 1574 1574 1574 1574 1574 1574 1574 1574 1574 1575 1575
1534 1535 1536 1537 1538 1539 1541 1542 1543 1544 1545 1545 1546 1546 1547 1548 1549 1549 1550 1551 1552 1553 1554 1555 1557 1558 1558 1558 1559 1560 1560 1561 1563 1564 1566 1567 1567 1567 1566 1566 1567 1567 1567 1567 1567 1568 1568 1568 1568 1568 1569 1569 1570 1570 1570 1570 1570 1571 1571 1572 1572 1572 1572 1572 1573 1574 1574 1575 1575 1574 1574 1574 1574 1574 1574 1574 1574 1574 1574 1575 1575 1575 1575 1575 1575
1534 1535 1536 1538 1539 1540 1541 1543 1544 1545 1545 1546 1546 1547 1548 1549 1550 1550 1551 1552 1553 1554 1555 1556 1557 1558 1559 1559 1559 1561 1561 1562 1564 1564 1566 1567 1567 1567 1567 1567 1567 1567 1568 1568 1568 1569 1569 1569 1569 1569 1570 1570 1570 1571 1571 1571 1571 1572 1572 1573 1573 1573 1573 1573 1574 1575 1576 1575 1575 1574 1574 1574 1574 1574 1574 1575 1575 1575 1575 1575 1575 1575 1575 1575 1575
1535 1536 1537 1538 1539 1541 1542 1543 1544 1545 1546 1546 1547 1548 1548 1549 1550 1551 1552 1553 1555 1555 1556 1556 1558 1559 1560 1561 1560 1561 1562 1563 1564 1564 1566 1567 1567 1568 1568 1568 1568 1568 1568 1569 1569 1569 1570 1570 1570 1570 1571 1571 1571 1571 1571 1572 1572 1572 1573 1574 1574 1574 1574 1575 1576 1577 1577 1577 1576 1575 1575 1574 1574 1574 1575 1575 1575 1575 1575 1576 1576 1576 1576 1576 1576
1535 1536 1537 1539 1540 1541 1542 1543 1544 1545 1546 1547 1548 1548 1549 1550 1551 1552 1553 1554 1555 1556 1557 1557 1558 1560 1561 1562 1562 1563 1563 1564 1565 1565 1567 1568 1568 1568 1569 1569 1569 1569 1569 1569 1570 1570 1571 1571 1571 1571 1572 1572 1572 1572 1572 1573 1573 1573 1574 1575 1575 1575 1575 1576 1578 1579 1579 1578 1576 1575 1575 1575 1575 1575 1575 1575 1576 1576 1576 1576 1576 1576 1576 1576 1576
1536 1536 1537 1539 1540 1541 1542 1544 1545 1546 1546 1547 1548 1549 1550 1550 1551 1553 1554 1555 1556 1556 1558 1558 1559 1561 1562 1563 1563 1564 1565 1565 1565 1566 1567 1568 1569 1569 1569 1570 1570 1570 1570 1570 1570 1571 1572 1572 1572 1572 1573 1573 1573 1573 1573 1574 1574 1574 1575 1576 1576 1577 1577 1577 1580 1580 1580 1579 1577 1576 1576 1575 1575 1575 1576 1576 1576 1576 1576 1576 1577 1577 1577 1577 1577
1536 1537 1538 1539 1540 1541 1543 1544 1545 1546 1547 1548 1548 1549 1550 1551 1552 1553 1554 1555 1555 1557 1558 1559 1560 1561 1562 1563 1564 1564 1565 1565 1565 1566 1568 1569 1569 1570 1570 1570 1570 1571 1571 1571 1571 1572 1573 1573 1573 1573 1574 1573 1574 1574 1574 1575 1575 1575 1576 1577 1577 1578 1578 1579 1580 1581 1581 1579 1577 1577 1577 1576 1576 1576 1577 1577 1577 1577 1577 1577 1577 1577 1577 1577 1577
1537 1538 1539 1540 1541 1542 1543 1544 1545 1546 1547 1548 1549 1549 1550 1552 1552 1553 1555 1556 1556 1557 1558 1559 1560 1561 1563 1564 1564 1565 1565 1566 1566 1567 1568 1570 1570 1570 1571 1571 1571 1571 1571 1572 1572 1573 1574 1574 1574 1574 1574 1574 1575 1575 1575 1575 1576 1576 1577 1578 1578 1579 1579 1579 1581 1582 1581 1579 1578 1578 1577 1577 1577 1577 1578 1578 1578 1578 1578 1578 1578 1578 1578 1578 1578
1538 1539 1540 1541 1541 1543 1543 1544 1545 1546 1548 1548 1549 1550 1551 1552 1553 1554 1555 1556 1556 1557 1558 1559 1560 1562 1563 1564 1565 1565 1566 1567 1567 1567 1569 1571 1571 1571 1571 1572 1572 1572 1572 1572 1573 1574 1574 1575 1575 1575 1575 1575 1575 1576 1576 1576 1577 1578 1578 1579 1579 1579 1580 1580 1581 1582 1581 1579 1579 1579 1578 1578 1578 1578 1579 1579 1578 1578 1579 1579 1579 1579 1578 1578 1578
1538 1540 1540 1541 1542 1543 1544 1545 1546 1547 1548 1549 1550 1551 1552 1553 1553 1554 1554 1556 1556 1557 1558 1559 1561 1562 1563 1564 1564 1565 1566 1567 1568 1568 1570 1572 1572 1572 1572 1572 1572 1573 1573 1573 1574 1574 1575 1575 1575 1576 1576 1576 1576 1576 1577 1578 1579 1579 1579 1579 1580 1580 1580 1581 1582 1583 1582 1580 1580 1580 1579 1579 1579 1579 1579 1579 1579 1579 1579 1579 1579 1579 1579 1579 1579
1539 1540 1540 1541 1542 1543 1544 1545 1546 1547 1548 1549 1550 1551 1552 1553 1553 1554 1554 1555 1556 1557 1559 1560 1561 1562 1563 1564 1564 1565 1566 1568 1569 1570 1572 1572 1573 1572 1572 1572 1573 1573 1573 1574 1574 1575 1575 1576 1576 1576 1576 1576 1577 1577 1578 1579 1579 1580 1580 1580 1581 1580 1580 1582 1583 1583 1582 1581 1581 1580 1580 1580 1580 1580 1580 1580 1580 1580 1580 1580 1580 1580 1580 1579 1579
1538 1540 1541 1541 1542 1543 1544 1545 1546 1547 1548 1549 1550 1551 1551 1552 1552 1553 1554 1555 1556 1557 1559 1561 1561 1562 1563 1563 1564 1566 1567 1569 1570 1571 1572 1573 1573 1573 1573 1573 1573 1573 1573 1574 1575 1575 1576 1576 1577 1577 1577 1577 1578 1578 1579 1580 1580 1580 1581 1581 1581 1580 1581 1583 1584 1583 1582 1581 1581 1581 1580 1580 1580 1580 1580 1580 1580 1580 1581 1581 1581 1580 1580 1580 1580
1538 1540 1541 1541 1542 1543 1544 1545 1545 1546 1548 1549 1550 1551 1551 1551 1551 1552 1554 1555 1555 1557 1559 1561 1561 1562 1563 1564 1565 1566 1568 1570 1571 1573 1573 1573 1573 1573 1573 1573 1573 1573 1574 1575 1575 1576 1576 1577 1577 1578 1578 1578 1579 1579 1579 1580 1581 1581 1581 1581 1581 1581 1582 1583 1584 1584 1582 1582 1582 1581 1581 1581 1581 1581 1580 1581 1581 1581 1581 1582 1581 1581 1581 1581 1581
1539 1540 1540 1541 1542 1543 1544 1545 1545 1547 1548 1548 1550 1551 1551 1552 1552 1553 1554 1555 1555 1557 1559 1560 1562 1563 1563 1564 1566 1567 1569 1571 1572 1572 1573 1573 1573 1573 1574 1573 1574 1574 1575 1575 1576 1576 1577 1578 1578 1578 1579 1579 1579 1579 1579 1580 1582 1582 1582 1581 1581 1582 1583 1584 1585 1584 1583 1583 1583 1582 1582 1581 1581 1581 1581 1581 1581 1582 1582 1582 1582 1582 1582 1582 1582
1538 1540 1540 1541 1542 1542 1544 1545 1546 1547 1548 1548 1550 1551 1551 1552 1553 1553 1554 1555 1556 1557 1559 1561 1562 1564 1564 1565 1567 1568 1570 1572 1572 1572 1572 1573 1573 1574 1574 1574 1575 1575 1576 1576 1576 1577 1578 1578 1578 1579 1579 1580 1579 1580 1580 1580 1582 1583 1582 1582 1582 1583 1584 1585 1586 1584 1583 1583 1583 1583 1582 1582 1582 1582 1582 1582 1582 1582 1583 1583 1583 1583 1582 1582 1582
1538 1539 1540 1542 1542 1542 1543 1544 1545 1546 1547 1549 1550 1551 1551 1552 1553 1554 1555 1555 1556 1557 1559 1561 1563 1565 1565 1566 1568 1569 1571 1572 1573 1573 1573 1573 1574 1574 1575 1575 1575 1576 1576 1577 1577 1578 1578 1578 1579 1580 1580 1580 1580 1580 1581 1582 1583 1583 1583 1583 1584 1585 1585 1585 1585 1584 1584 1584 1583 1583 1583 1583 1583 1583 1583 1583 1583 1583 1583 1583 1583 1584 1583 1583 1583
1537 1539 1540 1541 1541 1542 1543 1543 1544 1545 1547 1548 1550 1551 1552 1552 1552 1553 1554 1555 1556 1558 1559 1562 1564 1566 1567 1567 1569 1570 1571 1573 1573 1573 1574 1574 1575 1575 1575 1575 1576 1577 1577 1577 1578 1579 1579 1578 1579 1580 1580 1581 1581 1582 1583 1584 1585 1585 1584 1584 1584 1585 1585 1586 1586 1584 1584 1584 1584 1584 1584 1584 1584 1584 1584 1584 1584 1584 1584 1584 1584 1585 1584 1584 1583
1536 1538 1540 1541 1542 1542 1543 1543 1544 1545 1547 1548 1550 1551 1551 1552 1550 1551 1553 1555 1556 1558 1559 1562 1564 1566 1568 1569 1570 1572 1572 1573 1574 1574 1575 1575 1575 1576 1576 1576 1577 1578 1578 1578 1579 1579 1579 1579 1580 1581 1581 1582 1582 1584 1584 1584 1585 1585 1585 1585 1585 1585 1586 1587 1586 1585 1585 1585 1585 1585 1585 1584 1585 1585 1585 1584 1584 1584 1584 1585 1585 1585 1585 1585 1584
1537 1538 1540 1541 1542 1543 1543 1543 1544 1545 1546 1548 1549 1550 1551 1552 1550 1550 1552 1554 1556 1558 1560 1562 1564 1566 1568 1570 1571 1572 1573 1574 1575 1575 1576 1575 1576 1576 1577 1578 1579 1579 1579 1579 1579 1580 1580 1581 1582 1582 1583 1583 1583 1584 1585 1585 1585 1585 1585 1585 1585 1586 1586 1587 1586 1585 1585 1586 1586 1585 1585 1585 1585 1585 1585 1585 1585 1585 1585 1585 1586 1586 1586 1586 1585
1537 1538 1540 1540 1541 1542 1543 1543 1544 1545 1546 1548 1549 1550 1551 1552 1551 1552 1553 1554 1556 1558 1560 1562 1564 1566 1568 1570 1571 1572 1573 1574 1575 1576 1576 1576 1577 1577 1579 1580 1580 1580 1580 1580 1581 1580 1581 1582 1583 1583 1584 1584 1583 1585 1585 1585 1586 1586 1586 1586 1586 1586 1586 1586 1587 1586 1585 1586 1586 1586 1586 1586 1586 1586 1586 1586 1586 1586 1586 1586 1586 1586 1587 1586 1586
1537 1538 1539 1540 1541 1542 1543 1543 1544 1545 1546 1548 1550 1551 1552 1552 1552 1553 1554 1555 1557 1558 1560 1562 1564 1566 1568 1570 1571 1573 1573 1574 1575 1576 1577 1577 1578 1579 1580 1580 1580 1580 1580 1581 1581 1581 1582 1583 1583 1584 1585 1584 1584 1585 1585 1584 1586 1587 1587 1587 1587 1586 1586 1586 1586 1587 1586 1586 1586 1586 1586 1586 1586 1586 1586 1586 1586 1586 1586 1587 1587 1587 1587 1587 1587
1537 1538 1539 1540 1541 1541 1542 1543 1544 1545 1546 1548 1550 1551 1552 1552 1553 1554 1555 1556 1558 1560 1561 1563 1564 1566 1568 1570 1572 1574 1574 1575 1576 1577 1578 1578 1579 1580 1581 1581 1581 1581 1581 1581 1581 1581 1582 1584 1584 1584 1585 1585 1584 1586 1586 1585 1586 1587 1587 1587 1587 1587 1587 1587 1587 1587 1587 1586 1586 1586 1585 1586 1586 1586 1586 1586 1587 1587 1587 1587 1587 1587 1587 1587 1587
1537 1538 1539 1540 1541 1542 1542 1543 1544 1545 1547 1548 1549 1551 1552 1553 1553 1554 1556 1557 1559 1560 1562 1564 1565 1567 1568 1570 1572 1574 1574 1575 1576 1576 1578 1580 1580 1581 1581 1581 1581 1581 1581 1582 1582 1582 1583 1584 1585 1585 1586 1586 1585 1586 1586 1585 1586 1587 1587 1588 1587 1587 1587 1587 1588 1587 1586 1585 1585 1585 1585 1586 1586 1586 1586 1587 1587 1587 1588 1588 1588 1588 1588 1587 1587
1536 1538 1539 1540 1541 1542 1543 1544 1544 1546 1548 1549 1549 1551 1552 1553 1554 1555 1557 1558 1559 1560 1562 1564 1566 1567 1569 1570 1572 1574 1574 1575 1576 1576 1579 1581 1581 1581 1581 1581 1581 1581 1581 1582 1582 1582 1583 1584 1584 1585 1585 1585 1586 1586 1586 1586 1587 1587 1587 1588 1588 1587 1587 1588 1588 1587 1586 1585 1585 1585 1585 1586 1587 1587 1587 1587 1588 1588 1589 1589 1589 1588 1588 1588 1587
1536 1537 1539 1540 1541 1542 1543 1544 1545 1546 1548 1549 1551 1552 1553 1553 1554 1556 1556 1557 1559 1561 1563 1565 1567 1568 1569 1571 1573 1574 1575 1576 1576 1578 1580 1581 1581 1581 1581 1581 1581 1581 1581 1582 1582 1582 1583 1584 1584 1584 1585 1584 1585 1587 1587 1587 1587 1587 1587 1588 1588 1587 1587 1588 1588 1587 1586 1585 1586 1586 1585 1586 1588 1588 1588 1588 1588 1589 1590 1590 1590 1589 1589 1588 1588
1536 1537 1539 1540 1541 1542 1543 1544 1545 1547 1548 1550 1551 1552 1553 1554 1554 1556 1556 1557 1559 1561 1564 1566 1568 1569 1570 1572 1573 1574 1576 1576 1577 1579 1580 1580 1580 1581 1580 1581 1581 1581 1581 1582 1582 1582 1583 1584 1584 1584 1585 1585 1585 1586 1588 1588 1587 1588 1588 1588 1588 1587 1588 1588 1587 1588 1587 1585 1586 1587 1586 1587 1588 1589 1589 1589 1589 1589 1590 1590 1590 1590 1590 1589 1588
1536 1537 1538 1540 1541 1542 1543 1544 1546 1547 1548 1549 1551 1552 1554 1554 1555 1557 1558 1559 1561 1562 1563 1566 1568 1569 1571 1572 1573 1574 1576 1577 1577 1578 1579 1579 1580 1580 1580 1581 1581 1581 1581 1581 1582 1583 1584 1585 1585 1584 1585 1585 1586 1586 1587 1588 1588 1588 1588 1588 1588 1588 1588 1588 1587 1588 1588 1586 1587 1587 1588 1588 1589 1589 1589 1589 1590 1590 1590 1590 1590 1590 1590 1590 1589
1536 1537 1538 1540 1541 1542 1543 1544 1546 1546 1547 1549 1550 1552 1554 1555 1555 1557 1559 1561 1562 1563 1564 1566 1568 1570 1571 1571 1573 1574 1576 1577 1578 1578 1578 1579 1579 1580 1580 1580 1580 1581 1581 1582 1582 1583 1584 1585 1585 1585 1585 1585 1586 1586 1586 1587 1588 1588 1588 1588 1587 1588 1588 1588 1587 1588 1588 1588 1588 1588 1588 1589 1589 1589 1590 1590 1589 1590 1591 1591 1591 1590 1590 1590 1590
1536 1537 1538 1539 1541 1542 1543 1544 1545 1546 1547 1548 1550 1551 1553 1555 1557 1557 1559 1561 1562 1564 1565 1567 1569 1570 1571 1572 1573 1574 1575 1576 1577 1577 1578 1578 1579 1579 1579 1579 1580 1581 1581 1582 1582 1583 1584 1585 1585 1585 1585 1585 1585 1585 1585 1586 1587 1587 1588 1587 1587 1588 1588 1588 1588 1588 1589 1589 1589 1589 1589 1588 1589 1589 1590 1590 1589 1589 1590 1591 1591 1591 1590 1590 1590
1536 1537 1538 1539 1540 1541 1542 1543 1545 1546 1546 1548 1549 1551 1553 1555 1557 1558 1559 1561 1563 1565 1566 1568 1569 1570 1571 1571 1572 1573 1574 1575 1576 1577 1577 1577 1578 1578 1578 1579 1580 1581 1581 1582 1582 1583 1584 1584 1585 1585 1585 1585 1585 1586 1586 1586 1587 1587 1587 1587 1587 1587 1588 1588 1588 1588 1589 1589 1590 1590 1590 1589 1588 1589 1589 1590 1590 1590 1590 1590 1590 1590 1590 1590 1590
1535 1536 1538 1539 1540 1540 1542 1543 1544 1545 1546 1548 1549 1551 1553 1554 1556 1558 1559 1561 1563 1565 1566 1568 1569 1569 1570 1570 1571 1572 1573 1574 1575 1576 1576 1576 1577 1577 1578 1579 1580 1580 1581 1581 1582 1582 1583 1584 1584 1585 1585 1586 1586 1586 1587 1587 1586 1587 1587 1587 1587 1587 1588 1588 1588 1588 1589 1590 1590 1590 1591 1590 1589 1588 1589 1589 1589 1590 1590 1590 1590 1589 1589 1589 1589
1535 1536 1538 1538 1539 1540 1541 1543 1544 1545 1546 1547 1549 1551 1552 1554 1556 1557 1559 1561 1562 1564 1566 1567 1568 1568 1569 1570 1571 1571 1572 1574 1574 1575 1576 1576 1577 1577 1578 1579 1580 1580 1580 1581 1581 1582 1583 1583 1584 1585 1585 1585 1585 1586 1587 1586 1586 1586 1587 1587 1587 1587 1588 1588 1588 1588 1589 1590 1590 1591 1591 1592 1591 1589 1588 1589 1589 1590 1590 1589 1589 1589 1588 1589 1588
1535 1536 1538 1538 1539 1540 1541 1542 1543 1544 1546 1547 1549 1550 1552 1554 1555 1557 1559 1560 1561 1564 1565 1566 1567 1567 1568 1569 1570 1571 1572 1573 1574 1575 1575 1576 1577 1577 1578 1579 1580 1580 1580 1581 1581 1582 1583 1583 1584 1584 1584 1584 1584 1585 1586 1586 1587 1587 1586 1586 1587 1587 1587 1588 1588 1589 1589 1590 1590 1590 1590 1591 1591 1589 1588 1589 1589 1589 1589 1588 1588 1588 1588 1588 1588
1535 1536 1537 1538 1539 1539 1540 1541 1543 1544 1546 1547 1549 1550 1552 1553 1555 1556 1558 1559 1561 1563 1564 1565 1566 1567 1568 1568 1569 1570 1571 1572 1573 1574 1575 1576 1576 1577 1577 1579 1579 1580 1580 1581 1581 1582 1583 1583 1584 1584 1584 1584 1584 1585 1585 1586 1586 1587 1586 1586 1586 1587 1587 1588 1588 1588 1589 1589 1589 1589 1589 1590 1590 1589 1587 1587 1588 1588 1588 1588 1588 1588 1587 1587 1586
1534 1536 1537 1538 1539 1539 1540 1541 1542 1544 1545 1546 1548 1550 1551 1552 1553 1555 1557 1559 1560 1562 1563 1565 1566 1567 1567 1568 1568 1570 1571 1572 1573 1574 1574 1575 1576 1576 1577 1578 1579 1580 1580 1581 1581 1582 1583 1583 1583 1583 1584 1584 1584 1584 1585 1585 1586 1586 1587 1587 1587 1587 1587 1587 1588 1588 1589 1589 1589 1589 1590 1590 1589 1588 1587 1586 1587 1588 1588 1587 1587 1586 1586 1586 1586
1534 1535 1536 1538 1539 1539 1540 1541 1542 1543 1545 1546 1548 1549 1550 1551 1553 1554 1556 1557 1559 1561 1562 1563 1565 1566 1567 1567 1568 1569 1570 1571 1572 1573 1574 1575 1576 1576 1577 1578 1578 1579 1580 1580 1581 1582 1583 1583 1583 1583 1583 1584 1584 1584 1585 1586 1586 1586 1586 1587 1588 1587 1586 1587 1588 1588 1588 1589 1589 1589 1589 1589 1588 1587 1587 1586 1587 1587 1586 1586 1586 1586 1586 1586 1586
1533 1535 1536 1537 1538 1538 1539 1540 1542 1543 1544 1545 1547 1548 1549 1551 1552 1554 1555 1557 1558 1560 1561 1563 1564 1566 1567 1567 1568 1569 1570 1571 1572 1573 1574 1574 1575 1576 1577 1578 1578 1579 1579 1580 1580 1581 1582 1582 1583 1583 1583 1583 1584 1585 1585 1585 1586 1586 1586 1587 1588 1588 1587 1587 1588 1588 1588 1588 1588 1588 1588 1588 1587 1586 1586 1586 1586 1586 1586 1585 1585 1585 1586 1586 1586
1533 1534 1536 1537 1538 1538 1539 1540 1541 1543 1544 1545 1546 1547 1549 1550 1552 1554 1555 1556 1558 1559 1561 1562 1563 1565 1566 1567 1567 1569 1569 1571 1572 1573 1573 1574 1575 1576 1576 1577 1578 1578 1579 1579 1580 1581 1581 1582 1582 1583 1583 1584 1584 1585 1585 1586 1586 1586 1587 1587 1588 1588 1588 1588 1588 1588 1588 1588 1588 1587 1587 1587 1586 1586 1585 1585 1586 1585 1585 1585 1584 1583 1584 1585 1585
1533 1534 1536 1537 1537 1538 1539 1540 1541 1543 1543 1544 1546 1547 1549 1550 1551 1553 1554 1556 1557 1559 1560 1561 1563 1564 1565 1566 1567 1568 1569 1570 1571 1572 1573 1573 1574 1575 1576 1577 1577 1578 1578 1579 1580 1581 1581 1581 1582 1583 1583 1584 1584 1584 1585 1586 1586 1587 1587 1588 1588 1588 1589 1589 1588 1588 1589 1588 1588 1587 1587 1586 1586 1586 1585 1585 1585 1585 1584 1584 1583 1582 1582 1583 1584
1532 1534 1535 1536 1537 1538 1539 1540 1541 1542 1543 1544 1546 1547 1548 1550 1551 1553 1554 1555 1557 1558 1559 1561 1562 1563 1564 1566 1567 1568 1568 1569 1570 1571 1572 1573 1574 1574 1575 1576 1577 1577 1578 1579 1580 1580 1580 1581 1582 1583 1583 1583 1584 1584 1585 1586 1586 1587 1587 1588 1588 1588 1588 1589 1588 1588 1588 1588 1587 1587 1587 1586 1586 1585 1585 1585 1584 1584 1584 1583 1583 1582 1582 1583 1582
1531 1533 1535 1536 1537 1537 1538 1539 1540 1542 1543 1544 1545 1547 1548 1549 1550 1552 1553 1555 1556 1557 1558 1559 1561 1562 1563 1564 1566 1567 1568 1569 1570 1571 1571 1572 1573 1574 1574 1575 1576 1576 1577 1578 1579 1580 1580 1581 1582 1582 1582 1583 1584 1584 1584 1585 1586 1587 1587 1588 1588 1588 1588 1588 1587 1588 1588 1588 1588 1587 1587 1586 1586 1585 1584 1584 1584 1583 1583 1582 1582 1582 1582 1582 1581